Weather Roundup
Issued by NWS Springfield, MO

Home | Current Version | Previous Version | Text Only | Print | Product List | Glossary On
Versions: 1 2 3 4 5 6 7 8 9 10 11 12 13 14 15 16 17 18 19 20 21 22 23 24 25 26 27 28 29 30 31 32 33 34 35 36 37 38 39 40 41 42 43 44 45 46 47 48 49 50
000
NZUS99 KSGF 271607
HRRSGF

HOURLY WEATHER
NATIONAL WEATHER SERVICE SPRINGFIELD MO
1100 AM CDT MON MAR 27 2017

......SGF CWA......

CITY           SKY/WX    TMP DP  RH WIND       PRES   REMARKS
SPRINGFIELD    LGT RAIN  55  53  93 W8        29.85R FOG
JOPLIN         CLOUDY    54  53  97 NW6       29.88R FOG
WEST PLAINS    RAIN      55  54  96 S10       29.84S FOG
ROLLA          CLOUDY    55  54  96 E6        29.83S
OSAGE BEACH    CLOUDY   N/A N/A N/A E3        29.84R
BRANSON        CLOUDY    55  55 100 SE8       29.84R

......SURROUNDING SGF CWA......

CITY           SKY/WX    TMP DP  RH WIND       PRES   REMARKS
CHANUTE        CLOUDY    49  46  90 NW10      29.91R
PARSONS        CLOUDY    50  48  93 NW10      29.93R FOG
COFFEYVILLE    CLOUDY    51  48  89 NW16      29.92R
EMPORIA        CLOUDY    48  46  93 N14       29.94R
GROVE OK       CLOUDY    55  54  94 NW9       29.88R
ROGERS AR      CLOUDY    58  56  93 NW8       29.86R
SILOAM SPRINGS CLOUDY    57  52  82 N12       29.86R
HARRISON AR    CLOUDY    57  55  93 SE7       29.83F
NEAR YELLVILLE CLOUDY    57  52  82 NE3       29.82S

......KANSAS AND MISSOURI......

CITY           SKY/WX    TMP DP  RH WIND       PRES   REMARKS
KANSAS CTY INT CLOUDY    48  46  93 N12       29.93R
DOWNTOWN KC    CLOUDY    50  47  89 NE12      29.91R
COLUMBIA       CLOUDY    51  51 100 E12       29.85R FOG
SEDALIA        CLOUDY    50  49  96 N10       29.88R
ST JOSEPH      CLOUDY    48  47  96 N12       29.95R
ST LOUIS       LGT RAIN  54  51  90 NE7       29.86F FOG
SPIRIT OF STL  LGT RAIN  53  53 100 NE7       29.85F FOG
KIRKSVILLE     CLOUDY    47  32  56 NE13      29.92S
WICHITA        CLOUDY    49  45  86 N14       29.95R
TOPEKA         CLOUDY    48  47  96 NW10      29.96R
OLATHE         CLOUDY    48  47  96 N12       29.90R

......TENNESSEE......

CITY           SKY/WX    TMP DP  RH WIND       PRES   REMARKS
MEMPHIS        PTSUNNY   74  63  68 S15G25    29.89F
NASHVILLE      CLOUDY    70  60  70 S15G22    29.98S

......ARKANSAS.......

CITY           SKY/WX    TMP DP  RH WIND       PRES   REMARKS
FAYETTEVILLE   CLOUDY    60  58  92 W8        29.84R
FT SMITH       PTSUNNY   63  57  81 W18       29.84R
LITTLE ROCK    CLOUDY    70  65  84 SW16G24   29.85R

......OKLAHOMA.......

CITY           SKY/WX    TMP DP  RH WIND       PRES   REMARKS
TULSA          CLOUDY    54  50  86 NW16      29.90R
PONCA CITY     PTSUNNY   56  46  69 N13       29.94S
MCALESTER      CLOUDY    57  52  83 NW14      29.92R
OKLAHOMA CITY  CLOUDY    54  47  77 N17       29.95R

......IOWA............

CITY           SKY/WX    TMP DP  RH WIND       PRES   REMARKS
DES MOINES     CLOUDY    47  41  80 N7        29.95R
QUAD CITIES    CLOUDY    50  45  83 E6        29.93S

......ILLINOIS........

CITY           SKY/WX    TMP DP  RH WIND       PRES   REMARKS
QUINCY         LGT RAIN  50  48  93 NE12      29.91S FOG
CHICAGO        CLOUDY    47  44  90 E6        29.95S FOG




USA.gov is the U.S. government's official web portal to all federal, state and local government web resources and services.